TimeCET,TemperatureF,Dew PointF,Humidity,Sea Level PressureIn,VisibilityMPH,Wind Direction,Wind SpeedMPH,Gust SpeedMPH,PrecipitationIn,Events,Conditions,WindDirDegrees,DateUTC
12:15 AM,37.4,37.4,100,30.12,-9999.0,NNE,2.3,-,N/A,,Clear,30,2013-12-05 23:15:00
12:45 AM,37.4,37.4,100,30.12,-9999.0,NE,1.2,-,N/A,,Clear,40,2013-12-05 23:45:00
1:15 AM,37.4,35.6,93,30.09,6.2,NNE,2.3,-,N/A,,Partly Cloudy,20,2013-12-06 00:15:00
1:45 AM,37.4,35.6,93,30.09,5.0,NE,1.2,-,N/A,,Partly Cloudy,50,2013-12-06 00:45:00
2:15 AM,37.4,37.4,100,30.09,5.0,NE,2.3,-,N/A,,Partly Cloudy,40,2013-12-06 01:15:00
2:45 AM,37.4,37.4,100,30.09,4.3,NE,1.2,-,N/A,,Scattered Clouds,50,2013-12-06 01:45:00
3:15 AM,37.4,37.4,100,30.09,4.3,ENE,2.3,-,N/A,,Scattered Clouds,70,2013-12-06 02:15:00
3:45 AM,39.2,37.4,93,30.09,5.0,ENE,1.2,-,N/A,,Scattered Clouds,60,2013-12-06 02:45:00
4:15 AM,39.2,37.4,93,30.06,5.0,Calm,Calm,-,N/A,,Mostly Cloudy,0,2013-12-06 03:15:00
4:45 AM,39.2,37.4,93,30.06,5.0,NE,2.3,-,N/A,,Mostly Cloudy,40,2013-12-06 03:45:00
5:15 AM,39.2,39.2,100,30.04,5.0,NNE,2.3,-,N/A,,Scattered Clouds,20,2013-12-06 04:15:00
5:45 AM,39.2,39.2,100,30.04,5.6,NNE,1.2,-,N/A,,Scattered Clouds,30,2013-12-06 04:45:00
6:15 AM,39.2,39.2,100,30.04,5.6,NE,4.6,-,N/A,,Scattered Clouds,50,2013-12-06 05:15:00
6:45 AM,39.2,39.2,100,30.04,5.6,NNE,1.2,-,N/A,,Scattered Clouds,30,2013-12-06 05:45:00
7:15 AM,39.2,39.2,100,30.04,5.6,Calm,Calm,-,N/A,,Mostly Cloudy,0,2013-12-06 06:15:00
7:45 AM,41.0,39.2,93,30.04,5.6,North,2.3,-,N/A,,Mostly Cloudy,360,2013-12-06 06:45:00
8:15 AM,41.0,41.0,100,30.04,5.6,NE,4.6,-,N/A,,Mostly Cloudy,50,2013-12-06 07:15:00
8:45 AM,41.0,41.0,100,30.04,5.6,NE,3.5,-,N/A,,Mostly Cloudy,50,2013-12-06 07:45:00
9:15 AM,44.6,42.8,93,30.04,5.6,East,4.6,-,N/A,,Mostly Cloudy,80,2013-12-06 08:15:00
9:45 AM,48.2,42.8,82,30.04,5.6,East,4.6,-,N/A,,Mostly Cloudy,90,2013-12-06 08:45:00
10:15 AM,50.0,44.6,82,30.04,5.6,East,4.6,-,N/A,,Mostly Cloudy,80,2013-12-06 09:15:00
10:45 AM,50.0,44.6,82,30.04,5.6,ENE,3.5,-,N/A,,Mostly Cloudy,70,2013-12-06 09:45:00
11:15 AM,53.6,42.8,67,30.01,5.6,ENE,6.9,-,N/A,,Mostly Cloudy,60,2013-12-06 10:15:00
11:45 AM,51.8,41.0,67,30.01,5.6,ENE,5.8,-,N/A,,Mostly Cloudy,70,2013-12-06 10:45:00
12:15 PM,53.6,41.0,62,29.98,5.6,ENE,8.1,-,N/A,,Mostly Cloudy,70,2013-12-06 11:15:00
12:45 PM,53.6,41.0,62,29.98,6.2,ENE,9.2,-,N/A,,Overcast,70,2013-12-06 11:45:00
1:15 PM,53.6,41.0,62,29.98,6.2,East,5.8,-,N/A,,Overcast,80,2013-12-06 12:15:00
1:45 PM,53.6,41.0,62,29.95,6.2,ENE,2.3,-,N/A,,Overcast,70,2013-12-06 12:45:00
2:15 PM,53.6,41.0,62,29.95,6.2,ENE,2.3,-,N/A,,Overcast,70,2013-12-06 13:15:00
2:45 PM,53.6,39.2,58,29.95,6.2,North,1.2,-,N/A,,Overcast,10,2013-12-06 13:45:00
3:15 PM,53.6,39.2,58,29.95,6.2,NE,2.3,-,N/A,,Overcast,40,2013-12-06 14:15:00
3:45 PM,53.6,39.2,58,29.95,6.2,NNE,2.3,-,N/A,,Overcast,20,2013-12-06 14:45:00
4:15 PM,51.8,41.0,67,29.95,6.2,Calm,Calm,-,N/A,,Overcast,0,2013-12-06 15:15:00
4:45 PM,51.8,41.0,67,29.95,6.2,Calm,Calm,-,N/A,,Overcast,0,2013-12-06 15:45:00
5:15 PM,51.8,41.0,67,29.95,6.2,ENE,2.3,-,N/A,,Overcast,60,2013-12-06 16:15:00
5:45 PM,51.8,41.0,67,29.95,6.2,Calm,Calm,-,N/A,,Overcast,0,2013-12-06 16:45:00
6:15 PM,51.8,41.0,67,29.95,6.2,Calm,Calm,-,N/A,,Overcast,0,2013-12-06 17:15:00
6:45 PM,50.0,42.8,76,29.95,6.2,Calm,Calm,-,N/A,,Overcast,0,2013-12-06 17:45:00
7:15 PM,50.0,42.8,76,29.95,5.0,Calm,Calm,-,N/A,,Overcast,0,2013-12-06 18:15:00
7:45 PM,50.0,44.6,82,29.95,5.0,NE,2.3,-,N/A,,Overcast,40,2013-12-06 18:45:00
8:15 PM,50.0,44.6,82,29.95,5.0,NE,2.3,-,N/A,,Overcast,50,2013-12-06 19:15:00
8:45 PM,50.0,44.6,82,29.95,5.0,ENE,1.2,-,N/A,,Overcast,60,2013-12-06 19:45:00
9:15 PM,50.0,44.6,82,29.98,5.0,ENE,2.3,-,N/A,,Overcast,60,2013-12-06 20:15:00
9:45 PM,50.0,44.6,82,29.98,5.0,NE,1.2,-,N/A,,Mostly Cloudy,50,2013-12-06 20:45:00
10:15 PM,50.0,46.4,87,29.98,5.0,Calm,Calm,-,N/A,,Mostly Cloudy,0,2013-12-06 21:15:00
10:45 PM,50.0,46.4,87,29.98,5.0,NNW,1.2,-,N/A,,Mostly Cloudy,340,2013-12-06 21:45:00
11:15 PM,50.0,44.6,82,29.98,5.0,North,1.2,-,N/A,,Mostly Cloudy,350,2013-12-06 22:15:00
11:45 PM,48.2,44.6,87,29.98,5.0,Calm,Calm,-,N/A,,Scattered Clouds,0,2013-12-06 22:45:00